THOR ABLESTAR DEB, 330

Orbit data source: Space-Track

THOR ABLESTAR DEB, 330 is space debris in LEO originally from a launch on Thu, 29 Jun 1961 UTC launched from the Air Force Eastern Test Range (AFETR). Debris objects in space refer to the collection of defunct objects orbiting the Earth. Examples of debris include non-operational satellites, rocket bodies, and fragments generated from explosions, collisions, or faulty payload assembly.

Loading next visibility...
Identifier
330, 1961-015DG
Orbit
LEO
Country
Flag of USUS
Related business
Manufacturer
Unknown
Mission
Spacecraft
Bus & Motor
Unknown
Mass
Unknown
Launch date (UTC)
1961-06-29 (65 years ago)
Launch vehicle
Unknown
Launch site
Air Force Eastern Test Range (AFETR)
Object type
Payload
Rocket body
Debris
Shape & HBR
Unknown shape, 0.1 m
Radar Cross Section
Small (<0.1 m²)

Expand to show TLE details & history
Last TLE update: 1 day ago

TLE from 1 day ago
0 THOR ABLESTAR DEB
1 00330U 61015DG  26034.06815602  .00000824  00000-0  53801-3 0  9996
2 00330  66.9786 277.6178 0051799 224.4665 135.2260 14.06557568277842
Epoch: 2026-02-03T01:38Z
TLE epoch observation values (Epoch: 2026-02-03T01:38:08.680Z)
Latitude
-0.00004°
Longitude
119.82722°
Altitude
900.037 km
Speed
7.389 km/s
True Right ascension
18h 30m 28s
True Declination
0° 00' 00"
Sunlit
Object was in daylight at epoch
Visualization orbit readout
Latitude
Unknown
Longitude
Unknown
Altitude
Unknown
Speed
Unknown
Apparent Right ascension
Unknown
Apparent Declination
Unknown
Sunlit
N/A
Visualization observer readout
Local Sidereal Time
07:26:00
Azimuth
Unknown
Elevation
Unknown
Doppler factor
Unknown
Orbital elements
Apogee altitude
907.079 km
Perigee altitude
831.994 km
Semi-major axis
7,247.673 km
Eccentricity
0.00518
Inclination
66.9786°
RAAN
277.6178°
Arg. of periapsis
224.4665°
True anomaly
135.64214°
Mean anomaly
135.226°
Eccentric anomaly
135.43426°
Mean motion
3.51759 °/min
Orbital period
102.34 mins
BSTAR
0.00053801
Loading maneuver chart data...
Computing Atmospheric mass density...

Documentation

Showing up to 5 results
|